Location: Krakow
(50.0830°N, 19.9170°E)
Time: 11:54:44
(UTC+02:00)

A-11 Canister half - Visible Passes

Search period start: 08 May 2026 00:00
Search period end: 18 May 2026 00:00
Orbit: 1523 x 1685 km, 47.3° (Epoch: 7 May)

Date Brightness Start Highest point End Pass type
(mag) Time Alt. Az. Time Alt. Az. Time Alt. Az.
8 May 9.1 00:45:59 10° W 00:55:43 58° SSW 01:05:35 10° SE visible
8 May 9.8 02:51:33 10° W 02:59:23 27° SW 03:07:15 10° S visible
8 May 9.1 22:19:15 10° W 22:29:07 77° S 22:39:15 10° E visible
9 May 9.1 00:24:07 10° W 00:33:52 60° SSW 00:43:46 10° SE visible
9 May 9.8 02:29:36 10° W 02:37:36 28° SW 02:43:59 15° S visible
9 May 9.1 21:57:25 10° W 22:07:14 77° S 22:17:22 10° E visible
10 May 9.1 00:02:15 10° W 00:12:01 61° SSW 00:20:36 15° SE visible
10 May 9.8 02:07:40 10° W 02:15:48 29° SW 02:18:41 25° SSW visible
10 May 9.1 21:35:34 10° W 21:45:22 77° S 21:55:28 10° E visible
10 May 9.1 23:40:24 10° W 23:50:10 63° SSW 23:58:04 18° SE visible
11 May 9.7 01:45:43 10° W 01:54:01 31° SW 01:56:13 28° SSW visible
11 May 9.1 21:13:44 10° W 21:23:30 77° S 21:33:34 10° E visible
11 May 9.1 23:18:33 10° W 23:28:18 64° SSW 23:36:08 18° SE visible
12 May 9.7 01:23:48 10° W 01:32:13 32° SW 01:34:19 29° SSW visible
12 May 9.1 20:51:54 10° WSW 21:01:37 77° S 21:11:41 10° E visible
12 May 9.1 22:56:42 10° W 23:06:27 65° SSW 23:14:29 18° SE visible
13 May 9.7 01:01:53 10° W 01:10:25 33° SW 01:12:41 30° SSW visible
13 May 9.1 22:34:51 10° W 22:44:36 66° SSW 22:53:00 16° ESE visible
14 May 9.6 00:40:00 10° W 00:48:37 35° SW 00:51:13 31° SSW visible
14 May 9.1 22:13:00 10° W 22:22:43 67° SSW 22:31:39 14° ESE visible
15 May 9.6 00:18:05 10° W 00:26:49 36° SW 00:29:52 30° S visible
15 May 9.2 21:51:10 10° W 22:00:52 69° SSW 22:10:23 12° ESE visible
15 May 9.6 23:56:12 10° W 00:05:00 37° SW 00:08:37 29° S visible
16 May 10.7 02:05:25 10° WSW 02:06:51 11° WSW 02:06:51 11° WSW visible
16 May 9.2 21:29:18 10° W 21:39:00 70° SSW 21:49:00 10° ESE visible
16 May 9.6 23:34:19 10° WNW 23:43:11 39° SW 23:47:26 28° S visible
17 May 10.6 01:42:46 10° WSW 01:45:40 12° WSW 01:45:40 12° WSW visible
17 May 9.2 21:07:28 10° W 21:17:09 71° SSW 21:27:08 10° ESE visible
17 May 9.6 23:12:26 10° WNW 23:21:22 40° SW 23:26:19 26° SSE visible
